Orbital Elements at Epoch 2459000.5 (2020-May-31.0) TDB
Reference: JPL 3 (heliocentric ecliptic J2000)
Element | Value | Uncertainty (1-sigma) | Units |
e | .5397221510142035 | 0.00045365 | |
a | 1.941455174215039 | 0.0017849 | au |
q | .8936088114900431 | 5.9173e-05 | au |
i | 1.849154802965861 | 0.0012168 | deg |
node | 24.91409621288949 | 0.00013384 | deg |
peri | 45.53400706344207 | 0.00079629 | deg |
M | 296.5205902889252 | 0.089805 | deg |
tp | 2459174.728764627149 (2020-Nov-21.22876463) | 0.0062125 | TDB |
period | 988.0740156730028 2.71 | 1.3626 0.003731 | d yr |
n | .3643451748448163 | 0.00050246 | deg/d |
Q | 2.989301536940036 | 0.0027483 | au |
|
| | Orbit Determination Parameters
Additional Information
|